Location: Ann Arbor
(42.2710°N, 83.7260°W)
Time: 18:52:04
(UTC-05:00)

OTV 5 (USA 277) - Visible Passes

Search period start: 17 January 2018 00:00
Search period end: 27 January 2018 00:00
Orbit: 404 x 417 km, 43.0° (Epoch: 07 September)

Date Brightness Start Highest point End Pass type
(mag) Time Alt. Az. Time Alt. Az. Time Alt. Az.
21 Jan ? 19:32:08 10° SSW 19:33:23 16° S 19:33:23 16° S visible
22 Jan ? 18:41:57 10° S 18:43:48 14° SE 18:44:58 12° ESE visible
22 Jan ? 20:17:22 10° WSW 20:17:44 13° WSW 20:17:44 13° WSW visible
23 Jan ? 19:26:28 10° SW 19:29:15 39° S 19:29:15 39° S visible
24 Jan ? 18:35:43 10° SW 18:38:41 29° SSE 18:40:43 16° E visible
24 Jan ? 20:12:25 10° WSW 20:13:29 19° WSW 20:13:29 19° WSW visible
25 Jan ? 19:21:23 10° WSW 19:24:44 73° SSE 19:24:54 71° SE visible
26 Jan ? 18:30:23 10° WSW 18:33:42 56° SSE 18:36:18 15° E visible
26 Jan ? 20:07:38 10° W 20:09:03 23° W 20:09:03 23° W visible
